| time (UTC) | temp C | wind direction | speed KPH | gust KPH | rain 1hr cm | rain 24hr cm | rain mn cm | humidity % | barometer mb |
| 20260507202729 | 5 | 0.0 | 0.0 | 0.00 | 0.00 | 0.00 | 48 | 1019.5 | |
| 20260507200730 | 6 | 0.0 | 0.0 | 0.00 | 0.00 | 0.00 | 42 | 1019.1 | |
| 20260507194728 | 6 | 0.0 | 0.0 | 0.00 | 0.00 | 0.00 | 40 | 1018.8 | |
| 20260507192728 | 7 | 0.0 | 0.0 | 0.00 | 0.00 | 0.00 | 40 | 1018.5 | |
| 20260507190728 | 7 | 0.0 | 0.0 | 0.00 | 0.00 | 0.00 | 43 | 1018.3 | |
| 20260507184728 | 8 | 0.0 | 0.0 | 0.00 | 0.00 | 0.00 | 41 | 1018.0 | |
| 20260507180727 | 8 | 0.0 | 0.0 | 0.00 | 0.00 | 0.00 | 37 | 1017.6 | |
| 20260507174728 | 9 | 0.0 | 0.0 | 0.00 | 0.00 | 0.00 | 37 | 1017.4 | |
| 20260507172727 | 10 | 0.0 | 0.0 | 0.00 | 0.00 | 0.00 | 31 | 1017.2 | |
| 20260507170727 | 10 | 0.0 | 0.0 | 0.00 | 0.00 | 0.00 | 31 | 1017.0 | |
| 20260507164728 | 11 | 0.0 | 0.0 | 0.00 | 0.00 | 0.00 | 31 | 1016.9 | |
| 20260507162728 | 11 | 0.0 | 0.0 | 0.00 | 0.00 | 0.00 | 29 | 1016.7 | |
| 20260507160728 | 11 | 0.0 | 0.0 | 0.00 | 0.00 | 0.00 | 29 | 1016.6 | |
| 20260507154727 | 11 | 0.0 | 0.0 | 0.00 | 0.00 | 0.00 | 29 | 1016.4 | |
| 20260507152727 | 11 | 0.0 | 0.0 | 0.00 | 0.00 | 0.00 | 27 | 1016.4 | |
| 20260507150729 | 11 | 0.0 | 0.0 | 0.00 | 0.00 | 0.00 | 28 | 1016.3 | |
| 20260507144728 | 12 | 0.0 | 0.0 | 0.00 | 0.00 | 0.00 | 25 | 1016.2 | |
| 20260507142728 | 12 | 0.0 | 0.0 | 0.00 | 0.00 | 0.00 | 28 | 1016.0 | |
| 20260507134728 | 13 | 0.0 | 0.0 | 0.00 | 0.00 | 0.00 | 22 | 1015.7 | |
| 20260507132727 | 13 | 0.0 | 0.0 | 0.00 | 0.00 | 0.00 | 21 | 1015.7 | |
| 20260507130727 | 13 | 0.0 | 0.0 | 0.00 | 0.00 | 0.00 | 21 | 1015.6 | |
| 20260507124727 | 12 | 0.0 | 0.0 | 0.00 | 0.00 | 0.00 | 19 | 1015.7 | |
| 20260507122726 | 12 | 0.0 | 0.0 | 0.00 | 0.00 | 0.00 | 19 | 1015.8 | |
| 20260507120727 | 12 | 0.0 | 0.0 | 0.00 | 0.00 | 0.00 | 19 | 1015.6 | |
| 20260507114727 | 12 | 0.0 | 0.0 | 0.00 | 0.00 | 0.00 | 18 | 1015.8 | |
| 20260507112726 | 12 | 0.0 | 0.0 | 0.00 | 0.00 | 0.00 | 20 | 1015.8 | |
| 20260507110726 | 12 | 0.0 | 0.0 | 0.00 | 0.00 | 0.00 | 19 | 1015.9 | |
| 20260507104726 | 11 | 0.0 | 0.0 | 0.00 | 0.00 | 0.00 | 15 | 1016.0 | |
| 20260507102726 | 11 | 0.0 | 0.0 | 0.00 | 0.00 | 0.00 | 18 | 1015.9 | |
| 20260507100726 | 12 | 0.0 | 0.0 | 0.00 | 0.00 | 0.00 | 19 | 1015.9 | |
| 20260507094726 | 10 | 0.0 | 0.0 | 0.00 | 0.00 | 0.00 | 28 | 1016.0 | |
| 20260507092726 | 10 | 0.0 | 0.0 | 0.00 | 0.00 | 0.00 | 28 | 1016.1 | |
| 20260507090726 | 10 | 0.0 | 0.0 | 0.00 | 0.00 | 0.00 | 33 | 1016.2 | |
| 20260507084726 | 9 | 0.0 | 0.0 | 0.00 | 0.00 | 0.00 | 31 | 1016.3 | |
| 20260507082727 | 10 | 0.0 | 0.0 | 0.00 | 0.00 | 0.00 | 34 | 1016.3 | |
| 20260507080726 | 10 | 0.0 | 0.0 | 0.00 | 0.00 | 0.00 | 31 | 1016.4 | |
| 20260507074726 | 9 | 0.0 | 0.0 | 0.00 | 0.00 | 0.00 | 27 | 1016.4 | |
| 20260507072726 | 8 | 0.0 | 0.0 | 0.00 | 0.00 | 0.00 | 30 | 1016.4 | |
| 20260507070726 | 8 | 0.0 | 0.0 | 0.00 | 0.00 | 0.00 | 32 | 1016.4 | |
| 20260507064726 | 8 | 0.0 | 0.0 | 0.00 | 0.00 | 0.00 | 34 | 1016.5 | |
| 20260507062726 | 8 | 0.0 | 0.0 | 0.00 | 0.00 | 0.00 | 38 | 1016.4 | |
| 20260507060725 | 7 | 0.0 | 0.0 | 0.00 | 0.00 | 0.00 | 41 | 1016.3 | |
| 20260507054725 | 7 | 0.0 | 0.0 | 0.00 | 0.00 | 0.00 | 45 | 1016.3 | |
| 20260507052725 | 5 | 0.0 | 0.0 | 0.00 | 0.00 | 0.00 | 47 | 1016.3 | |
| 20260507050725 | 5 | 0.0 | 0.0 | 0.00 | 0.00 | 0.00 | 49 | 1016.5 | |
| 20260507044725 | 4 | 0.0 | 0.0 | 0.00 | 0.00 | 0.00 | 52 | 1016.6 | |
| 20260507042725 | 1 | 0.0 | 0.0 | 0.00 | 0.00 | 0.00 | 69 | 1016.6 | |
| 20260507034725 | -1 | 0.0 | 0.0 | 0.00 | 0.00 | 0.00 | 84 | 1016.9 | |
| 20260507032726 | -3 | 0.0 | 0.0 | 0.00 | 0.00 | 0.00 | 89 | 1016.9 | |
| 20260507030726 | -4 | 0.0 | 0.0 | 0.00 | 0.00 | 0.00 | 89 | 1017.0 | |
| 20260507024725 | -5 | 0.0 | 0.0 | 0.00 | 0.00 | 0.00 | 89 | 1016.9 | |
| 20260507020725 | -4 | 0.0 | 0.0 | 0.00 | 0.00 | 0.00 | 88 | 1016.7 | |
| 20260507014725 | -4 | 0.0 | 0.0 | 0.00 | 0.00 | 0.00 | 88 | 1016.5 | |
| 20260507012725 | -4 | 0.0 | 0.0 | 0.00 | 0.00 | 0.00 | 86 | 1016.5 | |
| 20260507010725 | -4 | 0.0 | 0.0 | 0.00 | 0.00 | 0.00 | 85 | 1016.4 | |
| 20260507004724 | -3 | 0.0 | 0.0 | 0.00 | 0.00 | 0.00 | 85 | 1016.2 | |
| 20260507002725 | -3 | 0.0 | 0.0 | 0.00 | 0.00 | 0.00 | 83 | 1016.3 | |
| 20260507000725 | -3 | 0.0 | 0.0 | 0.00 | 0.00 | 0.00 | 83 | 1016.1 | |
| 20260506234725 | -3 | 0.0 | 0.0 | 0.00 | 0.00 | 0.00 | 83 | 1015.9 | |
| 20260506232724 | -3 | 0.0 | 0.0 | 0.00 | 0.00 | 0.00 | 80 | 1015.8 | |
| 20260506230726 | -2 | 0.0 | 0.0 | 0.00 | 0.00 | 0.00 | 79 | 1015.7 | |
| 20260506224724 | -2 | 0.0 | 0.0 | 0.00 | 0.00 | 0.00 | 78 | 1015.7 | |
| 20260506222725 | -2 | 0.0 | 0.0 | 0.00 | 0.00 | 0.00 | 76 | 1015.6 | |
| 20260506220725 | -2 | 0.0 | 0.0 | 0.00 | 0.00 | 0.00 | 75 | 1015.4 | |
| 20260506214724 | -1 | 0.0 | 0.0 | 0.00 | 0.00 | 0.00 | 73 | 1015.3 | |
| 20260506212725 | -1 | 0.0 | 0.0 | 0.00 | 0.00 | 0.00 | 73 | 1015.2 | |
| 20260506210724 | -1 | 0.0 | 0.0 | 0.00 | 0.00 | 0.00 | 70 | 1015.1 | |
| 20260506204724 | 0 | 0.0 | 0.0 | 0.00 | 0.00 | 0.00 | 68 | 1015.1 |